Preview of NWS' New Version of Forecast
This preview is not operational and should not be used for support decisions.

Regional Weather Roundup (RWR)

Issued by National Weather Service (NWS)

                            
000
ASUS43 KTOP 240608
RWRKS 

WEATHER ROUNDUP FOR KANSAS
NATIONAL WEATHER SERVICE GOODLAND KS
100 AM CDT WED APR 24 2019

NOTE:  "FAIR" INDICATES FEW OR NO CLOUDS BELOW 12,000 FEET WITH NO
SIGNIFICANT WEATHER AND/OR OBSTRUCTIONS TO VISIBILITY.

KSZ001>006-013>018-027>032-041>047-240700-
NORTHWEST KANSAS
  
CITY           SKY/WX    TMP DP  RH WIND       PRES   REMARKS
GOODLAND       PTCLDY    48  34  58 SW12      29.99F HAZE             
6HR MIN TEMP:  43; 6HR MAX TEMP:  63;                                

HAYS           MOCLDY    50  41  71 W5        29.99S                  
HILL CITY      CLOUDY    46  35  65 CALM      29.98F                  
6HR MIN TEMP:  44; 6HR MAX TEMP:  67;                                

RUSSELL        CLOUDY    51  46  83 S7        29.97S                  
6HR MIN TEMP:  51; 6HR MAX TEMP:  59;                                

$$

KSZ061>065-074>080-084>089-240700-
SOUTHWEST KANSAS
  
CITY           SKY/WX    TMP DP  RH WIND       PRES   REMARKS
DODGE CITY     CLOUDY    48  43  82 W5        30.01S                  
6HR MIN TEMP:  48; 6HR MAX TEMP:  55; 6HR PCP: TRACE;                

ELKHART        CLEAR     46  44  91 W9        30.04F                  
GARDEN CITY    CLEAR     39  39 100 W9        30.00F                  
6HR MIN TEMP:  39; 6HR MAX TEMP:  47; 6HR PCP:  0.13;                

LIBERAL        CLEAR     39  38  96 W9        30.04F                  
PRATT          CLOUDY    50  49  95 CALM      29.99F                  
6HR MIN TEMP:  50; 6HR MAX TEMP:  54;                                

$$

KSZ066>073-081>083-090>101-240700-
SOUTHEAST KANSAS
  
CITY           SKY/WX    TMP DP  RH WIND       PRES   REMARKS
CHANUTE        CLOUDY    55  52  89 N5        29.97F FOG              
6HR MIN TEMP:  55; 6HR MAX TEMP:  57; 6HR PCP: TRACE;                

COFFEYVILLE    CLOUDY    56  53  90 N3        29.96S                  
6HR MIN TEMP:  55; 6HR MAX TEMP:  58;                                

HUTCHINSON     CLOUDY    50  48  93 CALM      29.97F                  
6HR MIN TEMP:  49; 6HR MAX TEMP:  54;                                

MEDICINE LODGE   N/A     49  49 100 CALM      29.98S                  
NEWTON         CLOUDY    49  47  93 NE3       29.98F                  
PARSONS        CLOUDY    55  53  93 NE3       29.98S                  
6HR MIN TEMP:  55; 6HR MAX TEMP:  56;                                

WICHITA INTL   CLOUDY    53  48  83 CALM      29.97F                  
6HR MIN TEMP:  53; 6HR MAX TEMP:  57;                                

WICHITA JABRA  MOCLDY    50  48  93 N5        29.96F                  
6HR MIN TEMP:  50; 6HR MAX TEMP:  55;                                

WICHITA MCCONL PTCLDY    51  49  94 CALM      29.96F                  
WINFIELD       CLOUDY    54  51  90 N3        29.97F                  
6HR MIN TEMP:  52; 6HR MAX TEMP:  56;                                

$$

KSZ007>012-019>026-033>040-048>060-102>105-240700-
NORTHEAST KANSAS
  
CITY           SKY/WX    TMP DP  RH WIND       PRES   REMARKS
CONCORDIA      CLOUDY    51  46  83 SW6       29.97F                  
6HR MIN TEMP:  51; 6HR MAX TEMP:  60;                                

EMPORIA        CLOUDY    51  50  96 CALM      29.97F                  
6HR MIN TEMP:  51; 6HR MAX TEMP:  52;                                

LAWRENCE       CLOUDY    52  50  93 N3        29.99R                  
6HR MIN TEMP:  51; 6HR MAX TEMP:  56; 6HR PCP:  0.01;                

MANHATTAN      LGT RAIN  52  49  89 CALM      29.99F                  
6HR MIN TEMP:  51; 6HR MAX TEMP:  56; 6HR PCP:  0.05;                

MARYSVILLE     CLOUDY    48  46  93 CALM      29.99S                  
OLATHE IND     CLOUDY    53  50  89 W3        29.99S FOG              
6HR MIN TEMP:  52; 6HR MAX TEMP:  53; 6HR PCP:  0.02;                

OLATHE EXE     CLOUDY    52  51  97 CALM      29.98S                  
6HR MIN TEMP:  51; 6HR MAX TEMP:  52; 6HR PCP:  0.01;                

SALINA         CLOUDY    49  47  93 SE6       29.99S                  
6HR MIN TEMP:  49; 6HR MAX TEMP:  55; 6HR PCP: TRACE;                

TOPEKA BILLARD CLOUDY    53  48  83 CALM      29.99S                  
6HR MIN TEMP:  52; 6HR MAX TEMP:  57;                                

TOPEKA FORBES  CLOUDY    52  49  89 CALM      29.98F                  
6HR MIN TEMP:  51; 6HR MAX TEMP:  55;                                

$$